New York JFK, NY

4:24 AM EDT on June 28, 2017 (GMT -0400)
Kennedy International

Weather History for KJFK - January, 2014

Change the Weather History Date:

Tuesday, January 28, 2014

  Actual Average Record
Temperature  
Mean Temperature 18 °F 33 °F  
Max Temperature 22 °F 39 °F 60 °F (2002)
Min Temperature 14 °F 26 °F 6 °F (2005)
Degree Days  
Heating Degree Days 47 32  
Month to date heating degree days 1004 907  
Since 1 July heating degree days 2646 2576  
Cooling Degree Days 0 0  
Month to date cooling degree days 0 0  
Year to date cooling degree days 0 0  
Moisture  
Dew Point -7 °F    
Average Humidity 33    
Maximum Humidity 40    
Minimum Humidity 25    
Precipitation  
Precipitation T in 0.09 in 1.31 in (1976)
Month to date precipitation 2.96 2.87  
Year to date precipitation 2.96 2.87  
Snow  
Snow T in 0.30 in 4.00 in (2004)
Month to date snowfall 16.0 5.6  
Since 1 July snowfall 22.9 10.5  
Snow Depth 1.00 in    
Sea Level Pressure  
Sea Level Pressure 30.30 in    
Wind  
Wind Speed 10 mph (NW)    
Max Wind Speed 23 mph    
Max Gust Speed 28 mph    
Visibility 10 miles    
Events Snow    
T = Trace of Precipitation, MM = Missing Value Source: NWS Daily Summary

Daily Weather History Graph

Daily Weather History Graph

Search for Another Location

Airport or City:

Trip Planner

Search our weather history database for the weather conditions in past years. The results will help you decide how hot, cold, wet, or windy it might be!

Date:

Astronomy

Jan. 28, 2014 Rise Set
Actual Time 7:08 AM EST 5:08 PM EST
Civil Twilight 6:39 AM EST 5:37 PM EST
Nautical Twilight 6:06 AM EST 6:10 PM EST
Astronomical Twilight 5:34 AM EST 6:42 PM EST
Moon 4:47 AM EST 2:55 PM EST
Length of Visible Light 10h 57m
Length of Day
9h 59m
Waning Crescent, 7% of the Moon is Illuminated
Jan 28
Waning Crescent
Jan 30
New
Feb 6
First Quarter
Feb 14
Full
Feb 22
Last Quarter

Hourly Weather History & Observations

Time (EST) Temp. Windchill Dew Point Humidity Pressure Visibility Wind Dir Wind Speed Gust Speed Precip Events Conditions
12:51 AM 19.9 °F 6.2 °F -2.9 °F 37% 30.12 in 10.0 mi NNW 15.0 mph 20.7 mph N/A   Overcast
1:51 AM 19.9 °F 6.2 °F -4.0 °F 35% 30.15 in 10.0 mi NW 15.0 mph - N/A   Overcast
2:51 AM 19.0 °F 6.1 °F -4.0 °F 36% 30.18 in 10.0 mi NW 12.7 mph - N/A   Overcast
3:51 AM 18.0 °F 4.2 °F -4.0 °F 38% 30.21 in 10.0 mi NW 13.8 mph - N/A   Overcast
4:51 AM 17.1 °F 1.0 °F -5.1 °F 37% 30.25 in 10.0 mi NW 18.4 mph - N/A   Mostly Cloudy
5:51 AM 16.0 °F -0.4 °F -5.1 °F 39% 30.28 in 10.0 mi NW 18.4 mph - N/A   Mostly Cloudy
6:51 AM 15.1 °F -0.1 °F -5.1 °F 41% 30.32 in 10.0 mi NNW 15.0 mph - N/A   Mostly Cloudy
7:51 AM 15.1 °F -1.1 °F -7.1 °F 37% 30.35 in 10.0 mi NW 17.3 mph - N/A   Mostly Cloudy
8:51 AM 15.1 °F -2.0 °F -9.0 °F 34% 30.37 in 10.0 mi NW 19.6 mph - N/A   Mostly Cloudy
9:51 AM 17.1 °F 2.0 °F -9.9 °F 30% 30.39 in 10.0 mi WNW 16.1 mph 21.9 mph N/A   Mostly Cloudy
10:51 AM 18.0 °F 4.8 °F -9.0 °F 30% 30.39 in 10.0 mi NNW 12.7 mph - N/A   Mostly Cloudy
11:51 AM 18.0 °F 6.9 °F -9.0 °F 30% 30.36 in 10.0 mi NNW 9.2 mph - N/A   Mostly Cloudy
12:51 PM 19.9 °F 11.1 °F -9.9 °F 26% 30.34 in 10.0 mi North 6.9 mph - N/A   Mostly Cloudy
1:51 PM 19.0 °F 12.3 °F -11.0 °F 26% 30.32 in 10.0 mi North 4.6 mph - N/A   Overcast
2:51 PM 19.9 °F 11.1 °F -11.9 °F 24% 30.34 in 10.0 mi Variable 6.9 mph - N/A   Overcast
3:51 PM 19.0 °F 9.0 °F -9.0 °F 29% 30.35 in 10.0 mi SW 8.1 mph - N/A   Overcast
4:51 PM 19.0 °F 11.1 °F -8.0 °F 30% 30.33 in 10.0 mi Variable 5.8 mph - N/A   Overcast
5:51 PM 19.0 °F 12.3 °F -9.9 °F 27% 30.34 in 10.0 mi NNW 4.6 mph - N/A   Overcast
6:51 PM 19.9 °F 13.4 °F -8.0 °F 29% 30.32 in 10.0 mi West 4.6 mph - N/A   Overcast
7:51 PM 19.9 °F 13.4 °F -8.0 °F 29% 30.33 in 10.0 mi WSW 4.6 mph - N/A   Overcast
8:51 PM 19.9 °F - -9.0 °F 27% 30.31 in 10.0 mi Calm Calm - N/A   Overcast
9:51 PM 19.9 °F - -6.0 °F 32% 30.28 in 10.0 mi Calm Calm - N/A   Overcast
10:51 PM 19.9 °F 12.1 °F -0.9 °F 40% 30.27 in 10.0 mi NNE 5.8 mph - 0.00 in Snow Light Snow
11:51 PM 18.0 °F 12.7 °F 7.0 °F 62% 30.25 in 7.0 mi SSE 3.5 mph - 0.00 in Snow Light Snow